OMNI-M1

导读 | 星芒AI

OMNI-M1 是一颗由 OneWeb 公司部署的低轨通信卫星,旨在为全球用户提供高速互联网服务。该卫星运行在约 1200 公里的近地轨道上,采用先进通信技术,支持偏远地区和航空、航海等移动场景的网络接入。作为 OneWeb 卫星星座的一部分,OMNI-M1 有助于构建全球覆盖的宽带网络,提升数字连接能力。

基本信息
目录编号:
26857
目录名称:
OMNI-M1
国际标识:
2001-026A
轨道中心:
EARTH
卫星名称:
OMNI-M1
卫星全名:
--
卫星状态:
在轨 (已飞行8898 天)
发射日期:
2001-06-19 UTC
国别 :
(NICO)
星等 :
--
轨道信息
数据来源 国际轨道数据
星历时间: 2025-10-27T22:22:31+0800
2天前
查看轨道信息
半长轴: 16979.077km
偏心率: 0.0015674
轨道倾角: 44.940°
近地点辐角 344.882°
升交点赤经 298.826°
平近点角 15.100°
近地点: 10574.328km
远地点: 10627.556km
周期: 366.970分钟
每日圈数: 3.924024
详细信息
使用方式:
暂无
2D轨道图
3D轨道图
轨道高度分析图
轨道倾角分析图
轨道综合分析图
查看轨道综合分析图